Showing default

SKYSAT C6, 42992

Orbit data source: Space-Track

SKYSAT C6, 42992 is a payload satellite owned by Terra Bella (US) in LEO that was launched on Tue, 31 Oct 2017 UTC via a MINOTAUR-C 3210 launch vehicle from the Air Force Western Test Range (AFWTR). Payloads include a variety of satellites, spacecraft, and rockets equipped with specific instruments for various scientific and technological missions. These include communications satellites like Starlink; space stations such as the ISS; scientific satellites like the Hubble; Earth observation satellites from companies like Planet Labs, Umbra, and HawkEye 360; GPS; miniature CubeSats for education and research; and military/defense satellites.

Loading next visibility...
SKYSAT C6 details
Identifier
42992, 2017-068F
Orbit
LEO
Last TLE update1 day ago
Origin
Flag of USTerra Bella (US)
ManufacturerMaxar SSL
MissionOperational Commercial Imaging
Bus & MotorSKYSAT-GEN2, Unknown motor
Mass110 kg wet, 110 kg dry
Launch date (UTC)
2017-10-31 (7 years ago)
Launch vehicle
MINOTAUR-C 3210
Launch site
Air Force Western Test Range (AFWTR)
Object type
Payload
Rocket body
Debris
Shape & HBRBox, 1.2 m
Radar Cross Section0.888 m², Medium (>0.1 m² and < 1m²)

Expand to show TLE details & history

TLE from 1 day ago
0 SKYSAT C6
1 42992U 17068F   24336.28751205  .00025673  00000-0  82596-3 0  9992
2 42992  97.3898 102.4011 0002542 152.2650 207.8727 15.32216032396179
Epoch: 2024-12-01T06:54Z
Definitive object data (Epoch: 2024-12-01T06:54:01.041Z)
Latitude-0.00008°
Longitude-71.73111°
Altitude473.849 km
Speed7.628 km/s
True Right ascension06h 49m 36s
True Declination0° 00' 00"
Sunlit
Object was in full shadow at TLE epoch
Visualization TLE readout
Latitude-80.87351°
Longitude-17.29746°
Altitude498.297 km
Speed7.614 km/s
Apparent Right ascension16h 31m 01s
Apparent Declination-66° 18' 07"
Sunlit
Object is in daylight
Visualization observer readout
Local Sidereal Time05:22:38
Azimuth168.743° S
Elevation-62.628°
Doppler factor1
Orbital elements
Apogee altitude467.891 km
Perigee altitude464.411 km
Semi-major axis6,844.288 km
Eccentricity0.0002542
Inclination97.3898°
RAAN102.4011°
Arg. of periapsis152.265°
True anomaly207.85909°
Mean anomaly207.8727°
Eccentric anomaly207.86589°
Mean motion3.83311 °/min
BSTAR0.00082596
Orbital period93.92 mins
Loading maneuver chart data...
Loading historical data...
Loading historical data...
Loading historical data...
Loading historical data...
Loading historical data...
Loading historical data...
Loading historical data...

SKYSAT C6 Visibility forecast

Observer location: undefined°, undefined

Span
Click to sort rows by Start time (UTC) header in descending order
Start Az.
Max El. time (UTC)
Max El. Az.
Max El.
End time (UTC)
End Az.
6 mins2024-12-02 08:06:32.700Z134.488° SE2024-12-02 08:09:32.700Z74.298° E26.642°2024-12-02 08:12:32.700Z10.917° NNE
5 mins2024-12-02 21:05:32.700Z38.196° NE2024-12-02 21:07:32.700Z93.529° ESE31.704°2024-12-02 21:10:32.700Z166.278° S
|